Regional Weather Roundup
Issued by NWS

Home | Current Version | Previous Version | Graphics & Text | Print | Product List | Glossary Off
Versions: 1 2 3 4 5 6 7 8 9 10 11 12 13 14 15 16 17 18 19 20 21 22 23 24 25 26 27

000
ASUS45 KBOU 181807
RWRCO

WEATHER ROUNDUP FOR COLORADO
NATIONAL WEATHER SERVICE DENVER/BOULDER CO
1100 AM MST WED JAN 18 2017

NOTE: "FAIR" INDICATES FEW OR NO CLOUDS BELOW 12000 FEET WITH NO
SIGNIFICANT WEATHER AND/OR OBSTRUCTIONS TO VISIBILITY.

COZ001>005-013-030-031-181900-
...NORTHWEST COLORADO...

CITY           SKY/WX    TMP DP  RH WIND       PRES   REMARKS
CRAIG          FAIR       8   5  87 CALM      30.16F
HAYDEN         FAIR      12   7  79 CALM      30.13S
MEEKER         FAIR      19  14  81 SW5       30.13F WCI  12
MOUNT WERNER   NOT AVBL
STEAMBOAT SPGS FAIR      13  10  88 CALM      30.12F
WALDEN           N/A    N/A N/A N/A CALM      30.10F
$$

COZ006>008-011-181900-
...WEST CENTRAL VALLEYS...

CITY           SKY/WX    TMP DP  RH WIND       PRES   REMARKS
GRAND JUNCTION PTSUNNY   35  27  72 CALM      30.15F
MONTROSE       FAIR      38  25  59 N3        30.15F
EAGLE          CLOUDY    32  21  64 CALM      30.18F
RIFLE          CLOUDY    35  24  64 CALM      30.14F
DELTA          FAIR      40  29  64 CALM      30.14F
NUCLA          PTSUNNY   34  27  75 CALM      30.17F
$$

COZ017>023-064>068-181900-
...SOUTHWEST COLORADO...

CITY           SKY/WX    TMP DP  RH WIND       PRES   REMARKS
DURANGO        FAIR      34  25  69 VRB5      30.10F WCI  30
CORTEZ         PTSUNNY   38  29  70 W7        30.14F
PAGOSA SPRINGS CLOUDY    34  27  76 S5        30.09F WCI  30
TELLURIDE      FAIR      26  13  57 CALM      30.12S
WOLF CREEK PAS CLOUDY    18  18 100 SW6       30.12S WCI   9
$$

COZ009-010-012-014-032>034-037-058>063-181900-
...CENTRAL COLORADO...

CITY           SKY/WX    TMP DP  RH WIND       PRES   REMARKS
ASPEN          FAIR      27  14  58 NW5       30.11S WCI  22
BUENA VISTA    FAIR      19   8  63 CALM      30.03F
COPPER MTN     NOT AVBL
BERTHOUD PASS  NOT AVBL
COTTONWOOD PAS FAIR      32  12  43 CALM      30.02S
GUNNISON       CLOUDY    25  16  68 N9        30.13F WCI  15
KREMMLING      CLOUDY    21  18  86 CALM      30.16F
LEADVILLE      FAIR      27   5  39 CALM      30.02F
MONARCH PASS   FAIR      19  14  79 MISG      30.16F
SALIDA         FAIR      32  17  55 NW3       30.10F
SUNLIGHT       FAIR      21  16  79 CALM      30.13F HAZE
WILKERSON PASS FAIR      32 -18  10 N7        30.06F WCI  26
$$

COZ069>075-181900-
...SAN LUIS VALLEY/SANGRE DE CRISTO MOUNTAINS...

CITY           SKY/WX    TMP DP  RH WIND       PRES   REMARKS
ALAMOSA        CLOUDY    28  23  81 CALM      30.09F
LA VETA PASS   FOG       23  19  86 NE29G36   30.00F VSB 3/4 WCI   6
SAGUACHE       FAIR      30  19  64 N5        30.08F WCI  25
$$

COZ035-036-038>040-181900-
...NORTHERN COLORADO FRONT RANGE...

CITY           SKY/WX    TMP DP  RH WIND       PRES   REMARKS
DENVER INTL AP FAIR      42  17  36 S9        29.89F
DMNS CITY PARK   N/A     44  10  25 SE8       29.89F
AURORA         MOSUNNY   43  13  30 SW7       29.89F
FRONT RANGE AP MOSUNNY   45  16  31 S5        29.90F
ERIE MUNI ARPT FAIR      44  15  32 SE3       29.89F
BOULDER MUN AP FAIR      45  14  29 CALM      29.88F
CENTENNIAL     FAIR      43  10  26 S3        29.89F
BROOMFIELD     MOSUNNY   41  18  38 SE3       29.89F
FORT COLLINS   FAIR      41  19  42 N3        29.89F
LONGMONT       FAIR      44  21  40 CALM      29.91F
$$

COZ041-046-047-076>085-087-088-181900-
...PIKES PEAK/PALMER DIVIDE AND SOUTHERN FOOTHILLS...

CITY           SKY/WX    TMP DP  RH WIND       PRES   REMARKS
COLO. SPRINGS  FAIR      53   0  11 N10       29.90F
A. F. ACADEMY  FAIR      51  -1  12 N7        29.89F
SCHRIEVER AFB  NOT AVBL
ELLICOTT       FAIR     N/A N/A N/A NE10      29.90S
FALCON         FAIR      50  -3  11 NE6       29.93F
FORT CARSON    SUNNY     50   9  18 SE2       29.90F
LIMON          FAIR      43  19  38 N5        29.91F
MONUMENT HILL  FAIR      43   9  24 W3        29.93F
TRINIDAD       FAIR      35  24  64 W7        29.92F WCI  29
$$

COZ042>045-048>051-090-091-181900-
...NORTHEAST COLORADO...

CITY           SKY/WX    TMP DP  RH WIND       PRES   REMARKS
GREELEY ARPT   FAIR      36  24  62 CALM      29.90F
AKRON          FAIR      35  21  56 W15       29.89F WCI  25
BURLINGTON     FAIR      42  22  44 N6        29.91F
WRAY           NOT AVBL
STERLING       FAIR      32  27  80 S8        29.89F WCI  25
HOLYOKE        FAIR      41  32  70 W6        29.89F
FORT MORGAN    FAIR      32  25  74 SW6       29.91F WCI  26
$$

COZ086-089-092>099-181900-
...SOUTHEAST COLORADO...

CITY           SKY/WX    TMP DP  RH WIND       PRES   REMARKS
PUEBLO         FAIR      43  32  65 E8        29.90F
LA JUNTA       FAIR      28  25  88 CALM      29.94F
LAMAR          FAIR      27  24  89 W6        29.94F WCI  20
SPRINGFIELD      N/A     36  33  89 CALM      29.94F
$$




USA.gov is the U.S. government's official web portal to all federal, state and local government web resources and services.